Content
SEND FEEDBACK

Daily
Averages
Monthly
Summary
United Kingdom

LONDON, ENGLAND


Home > Europe > United Kingdom > England
Elevation: 203 feet     Latitude: 51 09N     Longitude: 000 11W

WEATHER
 
SELECT A DAY
Number of Records: 297,238;   Date Range: 7/1/96 - 10/22/14
 
SHARE

PRINT THIS DATA

[ ← Previous Day ]
WEATHER ALMANAC - JANUARY 18, 2013
[ Next Day → ]
[ °C ]   °F
Weather ElementAverageHighLow
Temperature30.7 °F35.6 °F (12:50 am)28.4 °F (9:20 am)
Dewpoint26.5 °F28.4 °F (6:50 pm)24.8 °F (12:50 am)
Humidity84.7 %93 % (9:20 am)65 % (12:50 am)
Barometer29.61 in29.86 in (12:50 am)29.42 in (9:50 pm)
Wind Speed10.4 mph12.7 mph (2:20 pm)
Weather ElementAverage
Visibility3 mi
Wind DirectionESE (104.8 °)

Weather ElementTotal
Precipitation---
Heating Degree Days33 (Base 65)
Averaged from 46 records on January 18, 2013
WEATHER CONDITIONS BREAKOUT
WIND DIRECTION BREAKOUT
WEATHER BY HOUR - JANUARY 18, 2013
[ °C ]   °F
Local TimeTemperatureDewpointHumidityBarometerVisibilityWind DirectionWind SpeedGust SpeedPrecipitationEventsConditions
12:50 AM35.6 °F24.8 °F65 %29.86 in6.2 miESE (120°)8.1 mphSnowLight Snow
1:20 AM35.6 °F24.8 °F65 %29.86 in6.2 miSE (130°)8.1 mphSnowLight Snow
1:50 AM33.8 °F24.8 °F70 %29.86 in6.2 miSE (130°)8.1 mphSnowLight Snow
2:20 AM33.8 °F26.6 °F75 %29.83 in6.2 miSE (130°)8.1 mphMostly Cloudy
2:50 AM33.8 °F26.6 °F75 %29.83 in6.2 miSE (130°)8.1 mphMostly Cloudy
3:20 AM33.8 °F26.6 °F75 %29.83 in6.2 miSE (130°)9.2 mphScattered Clouds
3:50 AM33.8 °F26.6 °F75 %29.83 inSE (130°)9.2 mphClear
4:20 AM32.0 °F26.6 °F80 %29.80 in5.6 miSE (130°)8.1 mph
4:50 AM32.0 °F26.6 °F80 %29.80 in5.6 miESE (120°)8.1 mph
5:20 AM32.0 °F24.8 °F75 %29.77 in5.6 miESE (120°)8.1 mph
5:50 AM32.0 °F24.8 °F75 %29.77 in5.6 miESE (110°)10.4 mph
6:20 AM32.0 °F24.8 °F75 %29.74 in6.2 miESE (120°)11.5 mphPartly Cloudy
6:50 AM30.2 °F24.8 °F80 %29.74 in5.0 miESE (120°)11.5 mphMostly Cloudy
7:20 AM30.2 °F24.8 °F80 %29.71 in4.3 miESE (110°)11.5 mphMostly Cloudy
7:50 AM30.2 °F24.8 °F80 %29.71 in4.3 miEast (100°)11.5 mphMostly Cloudy
8:20 AM30.2 °F24.8 °F80 %29.71 in4.3 miEast (100°)10.4 mphSnowLight Snow
8:50 AM30.2 °F24.8 °F80 %29.68 in0.7 miEast (100°)11.5 mphSnowLight Snow
9:20 AM28.4 °F26.6 °F93 %29.68 in0.7 miEast (100°)10.4 mphSnowSnow
9:50 AM28.4 °F26.6 °F93 %29.65 in0.9 miEast (100°)9.2 mphSnowLight Snow
10:20 AM28.4 °F26.6 °F93 %29.65 in0.6 miEast (100°)10.4 mphSnowSnow
10:50 AM28.4 °F26.6 °F93 %29.62 in0.6 miESE (110°)6.9 mphSnowSnow
11:20 AM28.4 °F26.6 °F93 %29.62 in0.7 miESE (110°)10.4 mphSnowSnow
11:50 AM28.4 °F26.6 °F93 %29.59 in0.6 miESE (110°)10.4 mphSnowSnow
12:20 PM28.4 °F26.6 °F93 %29.59 in0.6 miEast (100°)9.2 mphSnowSnow
12:50 PM28.4 °F26.6 °F93 %29.56 in0.9 miESE (120°)9.2 mphSnowLight Snow
1:20 PM28.4 °F26.6 °F93 %29.53 in1.0 miESE (110°)11.5 mphSnowLight Snow
1:50 PM30.2 °F26.6 °F86 %29.53 in1.2 miESE (110°)11.5 mphSnowLight Snow
2:20 PM30.2 °F26.6 °F86 %29.50 inESE (110°)12.7 mphSnowLight Snow
2:50 PM30.2 °F26.6 °F86 %29.50 in3.1 miESE (110°)11.5 mphSnowLight Snow
3:20 PM30.2 °F26.6 °F86 %29.47 in3.7 miESE (110°)12.7 mphSnowLight Snow
4:20 PM30.2 °F26.6 °F86 %29.47 in3.7 miEast (100°)12.7 mphSnowLight Snow
4:50 PM30.2 °F26.6 °F86 %29.47 in2.5 miEast (100°)11.5 mphSnowLight Snow
5:20 PM30.2 °F26.6 °F86 %29.47 inEast (100°)9.2 mphSnowLight Snow
5:50 PM30.2 °F26.6 °F86 %29.47 in2.8 miEast (100°)11.5 mphSnowLight Snow
6:20 PM30.2 °F26.6 °F86 %29.44 in2.5 miEast (80°)9.2 mphSnowLight Snow
6:50 PM30.2 °F28.4 °F93 %29.44 in1.7 miEast (90°)11.5 mphSnowLight Snow
7:20 PM30.2 °F26.6 °F86 %29.44 in2.2 miEast (90°)11.5 mphSnowLight Snow
7:50 PM30.2 °F26.6 °F86 %29.44 inEast (80°)10.4 mphSnowLight Snow
8:20 PM30.2 °F26.6 °F86 %29.44 in1.9 miEast (80°)12.7 mphSnowLight Snow
8:50 PM30.2 °F28.4 °F93 %29.44 in1.7 miEast (90°)12.7 mphSnowLight Snow
9:20 PM30.2 °F28.4 °F93 %29.44 in1.7 miEast (90°)12.7 mphSnowLight Snow
9:50 PM30.2 °F28.4 °F93 %29.42 in1.7 miEast (80°)11.5 mphSnowLight Snow
10:20 PM30.2 °F28.4 °F93 %29.42 in1.9 miEast (80°)11.5 mphSnowLight Snow
10:50 PM30.2 °F28.4 °F93 %29.42 in1.4 miEast (80°)11.5 mphSnowSnow
11:20 PM30.2 °F28.4 °F93 %29.42 in1.6 miEast (80°)11.5 mphSnowLight Snow
11:50 PM30.2 °F28.4 °F93 %29.42 in1.6 miENE (70°)11.5 mphSnowLight Snow
Hourly data recorded from EGKK, located miles away from London, England







STORIES FROM OUR PARTNERS